Location: Hohenfelde
(53.8441°N, 9.6220°E)
Time: 12:29:08
(UTC+00:00)

Tsikada Rocket - Pass Details

Date: 14 July 2020
Orbit: 959 x 1008 km, 82.9° (Epoch: 13 August)

Event Time Altitude Azimuth Distance (km) Brightness Sun altitude
Rises 01:28:29 0° 348° (NNW) 3,746 7.9 -10.1°
Reaches altitude 10° 01:31:02 10° 347° (NNW) 2,795 7.1 -10.0°
Maximum altitude 01:37:27 76° 264° (W) 1,046 4.1 -9.5°
Drops below altitude 10° 01:43:50 10° 180° (S) 2,779 5.9 -9.0°
Enters shadow 01:45:07 - 179° (S) 3,254 6.2 -8.9°
